Regional Weather Roundup
Issued by NWS Raleigh/Durham, NC

Home | Current Version | Previous Version | Text Only | Print | Product List | Glossary On
Versions: 1 2 3 4 5 6 7 8 9 10 11 12 13 14 15 16 17 18 19 20 21 22 23 24 25 26 27 28
000
ASUS42 KRAH 260410
RWRRAH
NORTH CAROLINA WEATHER ROUNDUP
NATIONAL WEATHER SERVICE RALEIGH NC
1200 AM EDT FRI MAY 26 2017

NOTE: "FAIR" INDICATES FEW OR NO CLOUDS BELOW 12,000 FEET WITH NO
SIGNIFICANT WEATHER AND/OR OBSTRUCTIONS TO VISIBILITY.

NCZ001-053-055-056-065-067-260500-
WESTERN NORTH CAROLINA

CITY           SKY/WX    TMP DP  RH WIND       PRES   REMARKS
ASHEVILLE      CLEAR     60  45  57 N10       29.86R
JEFFERSON      CLOUDY    55  49  82 W10G28    29.80R
HICKORY        PTCLDY    61  52  72 S5        29.80R
RUTHERFORDTON  CLEAR     60  51  71 S3        29.82R
MOUNT AIRY     CLOUDY    62  54  73 SW3       29.78R
BOONE          CLEAR     55  48  76 W20G31    29.82R
$$

NCZ021-022-025-041-071-084-088-260500-
CENTRAL NORTH CAROLINA

CITY           SKY/WX    TMP DP  RH WIND       PRES   REMARKS
CHARLOTTE      PTCLDY    62  51  67 SW8       29.81R
GREENSBORO     PTCLDY    62  52  69 W14       29.75R
WINSTON-SALEM  CLOUDY    63  49  60 W7        29.77R
RALEIGH-DURHAM PTCLDY    62  54  74 SW13G20   29.74R
FORT BRAGG     CLEAR     66  52  59 SW8       29.77R
FAYETTEVILLE   CLEAR     67  54  63 SW12      29.78R
BURLINGTON     CLEAR     63  52  67 SW9       29.74R
LAURINBURG     CLEAR     65  54  67 SW9       29.80R
$$

NCZ011-015-027-028-043-044-047-080-103-260500-
NORTHEASTERN NORTH CAROLINA

CITY           SKY/WX    TMP DP  RH WIND       PRES   REMARKS
ROCKY MT-WILSO PTCLDY    66  55  67 SW13      29.72R
GREENVILLE     MOCLDY    68  55  64 SW12G18   29.75R
WASHINGTON     CLOUDY    66  57  71 SW12      29.72R
ELIZABETH CITY CLOUDY    67  59  75 SW15      29.68R
MANTEO         PTCLDY    65  60  83 W17       29.70S
CAPE HATTERAS  PTCLDY    72  57  59 W16G29    29.74R
$$

NCZ078-087-090-091-093-098-101-260500-
SOUTHEASTERN NORTH CAROLINA

CITY           SKY/WX    TMP DP  RH WIND       PRES   REMARKS
LUMBERTON      CLEAR     65  54  67 SW7       29.80R
GOLDSBORO      CLEAR     67  56  69 SW12      29.74R
KINSTON        CLEAR     65  55  69 CALM      29.76R
KENANSVILLE    CLEAR     64  55  72 SW5       29.78R
NEW BERN       CLEAR     66  56  70 SW10      29.78R
CHERRY POINT   CLEAR     68  54  60 SW16      29.78R
BEAUFORT       CLEAR     72  58  61 W22G35    29.78R
JACKSONVILLE   CLEAR     66  56  70 SW13      29.78R
WILMINGTON     CLEAR     66  55  67 SW12      29.82R
$$





USA.gov is the U.S. government's official web portal to all federal, state and local government web resources and services.